IZ1CYF-13 Weather Reports


time (UTC)temp
F
wind
direction
speed
knots
gust
knots
rain 1hr
in
rain 24hr
in
rain mn
in
humidity
%
barometer
mb
20260507090843 65 0.0 0.0 0.00 0.00 0.00 52 1014.9
20260507085858 65 0.0 0.0 0.00 0.00 0.00 53 1014.9
20260507084843 67 0.0 0.0 0.00 0.00 0.00 49 1014.8
20260507083843 68 0.0 0.0 0.00 0.00 0.00 47 1014.3
20260507082844 67 0.0 0.0 0.00 0.00 0.00 49 1014.4
20260507081847 65 0.0 0.0 0.00 0.00 0.00 52 1014.8
20260507080913 67 0.0 0.0 0.00 0.00 0.00 48 1014.5
20260507073842 66 0.0 0.0 0.00 0.00 0.00 47 1014.5
20260507072844 66 0.0 0.0 0.00 0.00 0.00 47 1014.5
20260507071843 66 0.0 0.0 0.00 0.00 0.00 47 1014.4
20260507070843 65 0.0 0.0 0.00 0.00 0.00 48 1014.6
20260507065905 67 0.0 0.0 0.00 0.00 0.00 46 1014.4
20260507064930 67 0.0 0.0 0.00 0.00 0.00 45 1014.1
20260507062843 67 0.0 0.0 0.00 0.00 0.00 47 1014.2
20260507061847 67 0.0 0.0 0.00 0.00 0.00 44 1014.1
20260507060847 68 0.0 0.0 0.00 0.00 0.00 43 1013.9
20260507055847 67 0.0 0.0 0.00 0.00 0.00 46 1013.9
20260507054843 68 0.0 0.0 0.00 0.00 0.00 42 1013.6
20260507053858 66 0.0 0.0 0.00 0.00 0.00 45 1013.8
20260507052843 62 0.0 0.0 0.00 0.00 0.00 48 1014.2
20260506230917 65 0.0 0.0 0.00 0.00 0.00 56 1012.3
20260506225923 65 0.0 0.0 0.00 0.00 0.00 56 1012.3
20260506220926 68 0.0 0.0 0.00 0.00 0.00 53 1011.6
20260506205844 63 0.0 0.0 0.00 0.00 0.00 61 1011.6
20260506204844 61 0.0 0.0 0.00 0.00 0.00 65 1012.0
20260506203844 63 0.0 0.0 0.00 0.00 0.00 61 1011.6
20260506202844 67 0.0 0.0 0.00 0.00 0.00 54 1010.8
20260506201851 68 0.0 0.0 0.00 0.00 0.00 53 1010.7
20260506200915 65 0.0 0.0 0.00 0.00 0.00 58 1010.9
20260506195848 65 0.0 0.0 0.00 0.00 0.00 58 1010.6
20260506194848 67 0.0 0.0 0.00 0.00 0.00 53 1009.9
20260506193848 67 0.0 0.0 0.00 0.00 0.00 54 1009.6
20260506192916 65 0.0 0.0 0.00 0.00 0.00 56 1009.7
20260506191844 62 0.0 0.0 0.00 0.00 0.00 62 1009.7
20260506190848 63 0.0 0.0 0.00 0.00 0.00 58 1009.1
20260506185848 64 0.0 0.0 0.00 0.00 0.00 60 1009.1
20260506184915 64 0.0 0.0 0.00 0.00 0.00 59 1009.1
20260506183848 64 0.0 0.0 0.00 0.00 0.00 58 1008.9
20260506182845 66 0.0 0.0 0.00 0.00 0.00 54 1008.2
20260506180845 66 0.0 0.0 0.00 0.00 0.00 55 1007.9
20260506175844 68 0.0 0.0 0.00 0.00 0.00 53 1007.4
20260506174844 68 0.0 0.0 0.00 0.00 0.00 53 1007.2
20260506173844 69 0.0 0.0 0.00 0.00 0.00 50 1007.0
20260506172844 65 0.0 0.0 0.00 0.00 0.00 56 1007.3
20260506171844 67 0.0 0.0 0.00 0.00 0.00 54 1006.9
20260506170845 67 0.0 0.0 0.00 0.00 0.00 54 1006.9
20260506165845 68 0.0 0.0 0.00 0.00 0.00 52 1006.8
20260506164844 72 0.0 0.0 0.00 0.00 0.00 46 1006.3
20260506163845 67 0.0 0.0 0.00 0.00 0.00 52 1006.8
20260506162845 67 0.0 0.0 0.00 0.00 0.00 52 1006.8
20260506161846 69 0.0 0.0 0.00 0.00 0.00 48 1006.6
20260506160849 69 0.0 0.0 0.00 0.00 0.00 48 1006.3
20260506155844 71 0.0 0.0 0.00 0.00 0.00 46 1006.2
20260506154845 70 0.0 0.0 0.00 0.00 0.00 47 1006.3
20260506153901 70 0.0 0.0 0.00 0.00 0.00 49 1006.3
20260506151849 67 0.0 0.0 0.00 0.00 0.00 53 1006.6
20260506150845 69 0.0 0.0 0.00 0.00 0.00 51 1006.4
20260506145900 68 0.0 0.0 0.00 0.00 0.00 52 1006.5
20260506144845 68 0.0 0.0 0.00 0.00 0.00 53 1006.5
20260506143901 70 0.0 0.0 0.00 0.00 0.00 49 1006.2
20260506142845 68 0.0 0.0 0.00 0.00 0.00 54 1006.5
20260506141848 69 0.0 0.0 0.00 0.00 0.00 50 1006.4
20260506140845 70 0.0 0.0 0.00 0.00 0.00 49 1006.2
20260506135846 70 0.0 0.0 0.00 0.00 0.00 45 1006.3
20260506134849 72 0.0 0.0 0.00 0.00 0.00 42 1006.1
20260506133905 69 0.0 0.0 0.00 0.00 0.00 44 1006.6
20260506132927 71 0.0 0.0 0.00 0.00 0.00 43 1006.4
20260506130900 71 0.0 0.0 0.00 0.00 0.00 45 1006.4
20260506125904 71 0.0 0.0 0.00 0.00 0.00 45 1006.5
20260506124849 72 0.0 0.0 0.00 0.00 0.00 45 1006.4
20260506123849 69 0.0 0.0 0.00 0.00 0.00 45 1006.7
20260506122849 70 0.0 0.0 0.00 0.00 0.00 47 1006.6
20260506121901 70 0.0 0.0 0.00 0.00 0.00 46 1006.7
20260506120849 68 0.0 0.0 0.00 0.00 0.00 48 1006.9
20260506115849 68 0.0 0.0 0.00 0.00 0.00 47 1007.0
20260506114849 70 0.0 0.0 0.00 0.00 0.00 44 1006.7
20260506113845 69 0.0 0.0 0.00 0.00 0.00 46 1007.0
20260506112849 67 0.0 0.0 0.00 0.00 0.00 46 1007.3
20260506111850 69 0.0 0.0 0.00 0.00 0.00 47 1007.1
20260506110846 65 0.0 0.0 0.00 0.00 0.00 51 1007.7
20260506105904 69 0.0 0.0 0.00 0.00 0.00 49 1007.5
20260506104904 68 0.0 0.0 0.00 0.00 0.00 49 1007.6
20260506103846 66 0.0 0.0 0.00 0.00 0.00 51 1008.0
20260506102849 70 0.0 0.0 0.00 0.00 0.00 46 1007.6
20260506101849 70 0.0 0.0 0.00 0.00 0.00 46 1007.6
20260506100846 70 0.0 0.0 0.00 0.00 0.00 45 1007.8
20260506095849 71 0.0 0.0 0.00 0.00 0.00 43 1007.7
20260506094849 68 0.0 0.0 0.00 0.00 0.00 48 1008.1
20260506093905 67 0.0 0.0 0.00 0.00 0.00 49 1008.2
20260506092849 71 0.0 0.0 0.00 0.00 0.00 43 1007.9
20260506091845 70 0.0 0.0 0.00 0.00 0.00 44 1007.9